Miscellaneous Local Product
Issued by NWS Hastings, NE

Home | Current Version | Previous Version | Text Only | Print | Product List | Glossary On
Versions: 1 2 3 4 5 6 7 8 9 10 11 12 13 14 15 16 17 18 19 20 21 22 23 24 25 26 27 28 29 30 31 32 33 34 35 36 37 38 39 40 41 42 43 44 45 46 47 48 49 50
774
AXUS43 KGID 270102
MISGRI

GID CWA HOURLY WEATHER ROUNDUP
NATIONAL WEATHER SERVICE HASTINGS NE
800 PM CDT THU APR 26 2018

NOTE: "FAIR" INDICATES FEW OR NO CLOUDS BELOW 12,000 FEET WITH NO
SIGNIFICANT WEATHER AND/OR OBSTRUCTIONS TO VISIBILITY.

...SOUTH CENTRAL NEBRASKA...

CITY           SKY/WX    TMP DP  RH WIND       PRES   REMARKS
GRAND ISLAND   CLEAR     57  29  34 N13       30.10R
KEARNEY        CLEAR     57  28  33 N13       30.11S
HASTINGS       CLEAR     57  28  33 N15       30.10R
ORD            CLEAR     57  29  34 N10       30.09S
YORK             N/A     57  28  33 N20G25    30.07R
AURORA         CLEAR     57  27  31 N14       30.08S
LEXINGTON      CLEAR     59  27  30 N8        30.12S
HOLDREGE       CLEAR     58  31  36 N12G20    30.11S
HEBRON         CLEAR     61  27  27 N14       30.06R

...NEBRASKA PANHANDLE...

CITY           SKY/WX    TMP DP  RH WIND       PRES   REMARKS
CHADRON        CLEAR     62  28  27 NW8       30.13F
ALLIANCE       CLEAR     58  29  33 NW9       30.15F
SCOTTSBLUFF    CLEAR     61  30  31 NW7       30.16F
SIDNEY         FAIR      57  27  31 N9        30.19F

...WESTERN AND NORTH CENTRAL NEBRASKA...

CITY           SKY/WX    TMP DP  RH WIND       PRES   REMARKS
VALENTINE      CLEAR     62  27  26 NW10      30.10F
AINSWORTH      CLEAR     58  29  33 N12       30.11S
ONEILL         CLEAR     59  28  31 N9        30.09F
BROKEN BOW     CLEAR     57  28  33 N9        30.11F
IMPERIAL       CLEAR     59  26  28 NW13      30.16F
NORTH PLATTE   CLEAR     60  27  28 N10       30.13F
MCCOOK         CLEAR     59  29  31 N14       30.13S

...EASTERN NEBRASKA...

CITY           SKY/WX    TMP DP  RH WIND       PRES   REMARKS
NORFOLK        CLEAR     56  29  35 N12       30.04S
SO SIOUX CITY  CLEAR     58  29  33 N22G29    30.02S
TEKAMAH        CLEAR     59  25  27 N21G28    30.02R
COLUMBUS       CLEAR     57  27  31 N12       30.08R
ALBION         CLEAR     58  30  34 N8        30.08S
OMAHA EPPLEY   CLEAR     61  27  27 N17       30.00R
OFFUTT AFB     CLEAR     61  25  25 N16       30.00R
MILLARD        CLEAR     63  28  26 N9G17     30.01R
LINCOLN        CLEAR     61  26  26 N20G28    30.04R
NEBRASKA CITY  CLEAR     62  32  32 N15       29.99R
BEATRICE       CLEAR     60  32  34 N14       30.02R
FALLS CITY     CLEAR     64  39  39 N9        29.94R

...NORTHERN KANSAS...

CITY           SKY/WX    TMP DP  RH WIND       PRES   REMARKS
GOODLAND       CLEAR     57  28  33 N13       30.17S
HILL CITY      CLEAR     60  30  32 N13       30.12S
NORTON         CLEAR     59  28  31 N8        30.12R
PHILLIPSBURG   CLEAR     61  27  27 N12       30.10S
SMITH CENTER   CLEAR     59  28  31 N12       30.09S
BELOIT         CLEAR     59  32  36 N13G21    30.05R
HAYS           CLEAR     62  31  31 N16       30.09R
RUSSELL        CLEAR     63  32  31 N17G28    30.06R
CONCORDIA      CLEAR     62  32  32 N12       30.04R
SALINA         CLEAR     64  43  46 N10       30.01R
TOPEKA         CLEAR     65  44  46 W5        29.95S



USA.gov is the U.S. government's official web portal to all federal, state and local government web resources and services.